Dakin Peak, Santa Catalina Island Weather observations

Data are for 10 minute period ending at time listed.
 Day   Time   Solar   Ave.   Ave.  Ave.  Vector    Max.   Stn.    Total
  of    of     Rad.   Air    Rel.  Wind   Wind     Wind   Baro.  Precip.
Year   Day            Temp.  Hum.  Speed  Dir.     Gust   Pres.         
2015   (PST)   W/m2    F      %     mph   deg.      mph    mb.     in.  
------------------------------------------------------------------------
  27   20:20    0.0    55   73.1     8    264.1    10.2    999.0   0.00  
  27   20:30    0.0    55   74.9     9    261.2    10.8    999.0   0.00  
  27   20:40    0.0    55   72.9     9    260.7    10.8    999.0   0.00  
  27   20:50    0.0    55   71.7     9    260.6    11.3    999.0   0.00  
  27   21:00    0.0    55   72.6    10    259.3    12.5    999.0   0.00  
  27   21:10    0.0    55   72.2     9    260.7    10.8    999.0   0.00  
  27   21:20    0.0    55   72.7     8    263.0     9.6    999.0   0.00  
  27   21:30    0.0    54   73.2     9    263.5    10.8    999.0   0.00  
  27   21:40    0.0    54   74.3     9    264.3    10.8    999.0   0.00  
  27   21:50    0.0    55   71.8     8    264.5    10.2    999.0   0.00  
  27   22:00    0.0    55   70.2     7    271.1     8.4    999.0   0.00  
  27   22:10    0.0    55   69.6     6    270.8     6.6    999.0   0.00  
  27   22:20    0.0    56   67.8     7    292.5    10.2    999.0   0.00  
  27   22:30    0.0    57   65.0     9    305.9    11.9    999.0   0.00  
  27   22:40    0.0    56   65.3     8    293.8     9.6    999.0   0.00  
  27   22:50    0.0    57   64.8     9    296.2    10.2    999.0   0.00  
  27   23:00    0.0    56   64.8     8    297.4     9.6    999.0   0.00  
  27   23:10    0.0    57   63.8     8    307.8     9.6    999.0   0.00  
  27   23:20    0.0    57   63.9     8    305.6    10.2    999.0   0.00  
  27   23:30    0.0    57   64.2     7    297.3     9.0    999.0   0.00  
  27   23:40    0.0    57   64.4     7    275.8     8.4    999.0   0.00  
  27   23:50    0.0    56   65.3     6    260.7     8.4    999.0   0.00  
  28    0:00    0.0    57   64.2     4    265.0     7.2    999.0   0.00  
  28    0:10    0.0    57   62.9     4    257.3     6.0    999.0   0.00  
  28    0:20    0.0    57   63.7     4    250.0     5.4    999.0   0.00  
  28    0:30    0.0    58   62.2     2    260.6     3.6    999.0   0.00  
  28    0:40    0.0    58   59.8     1    307.5     2.4    999.0   0.00  
  28    0:50    0.0    58   60.2     3    303.4     4.2    999.0   0.00  
  28    1:00    0.0    59   60.3     4    316.5     4.8    999.0   0.00  
  28    1:10    0.0    59   60.3     3    304.2     4.2    999.0   0.00  
  28    1:20    0.0    58   60.3     2    298.5     3.0    999.0   0.00  
  28    1:30    0.0    58   60.3     2    325.9     3.6    999.0   0.00  
  28    1:40    0.0    59   60.2     3    313.4     3.6    999.0   0.00  
  28    1:50    0.0    59   60.2     4    313.5     4.8    999.0   0.00  
  28    2:00    0.0    58   60.4     4    310.6     6.0    999.0   0.00  
  28    2:10    0.0    58   62.2     6    317.6     7.2    999.0   0.00  
  28    2:20    0.0    58   62.3     6    316.1     8.4    999.0   0.00  
  28    2:30    0.0    58   63.5     8    312.6    10.2    999.0   0.00  
  28    2:40    0.0    58   63.9     9    309.2     9.6    999.0   0.00  
  28    2:50    0.0    58   64.0     9    307.0    10.2    999.0   0.00  
  28    3:00    0.0    58   63.9    10    308.7    11.3    999.0   0.00  
  28    3:10    0.0    58   63.3    10    305.0    11.3    999.0   0.00  
  28    3:20    0.0    58   62.8    10    301.9    11.9    999.0   0.00  
  28    3:30    0.0    58   63.0    10    309.5    11.9    999.0   0.00  
  28    3:40    0.0    58   63.1    11    305.9    12.5    999.0   0.00  
  28    3:50    0.0    58   63.3    11    304.5    12.5    999.0   0.00  
  28    4:00    0.0    58   62.8    11    308.8    13.1    999.0   0.00  
  28    4:10    0.0    58   63.0    11    310.1    13.1    999.0   0.00  
  28    4:20    0.0    58   64.6    10    317.4    11.9    999.0   0.00  
  28    4:30    0.0    58   66.2    10    322.4    11.9    999.0   0.00  
  28    4:40    0.0    58   67.3     9    324.6    11.3    999.0   0.00  
  28    4:50    0.0    58   69.0     9    325.9    11.3    999.0   0.00  
  28    5:00    0.0    58   66.4     9    318.8    10.8    999.0   0.00  
  28    5:10    0.0    58   63.8     8    316.2    10.2    999.0   0.00  
  28    5:20    0.0    58   62.8     9    322.4    10.2    999.0   0.00  
  28    5:30    0.0    58   61.5     9    320.3    10.8    999.0   0.00  
  28    5:40    0.0    59   61.0    10    305.5    11.9    999.0   0.00  
  28    5:50    0.0    59   61.2    10    305.2    11.3    999.0   0.00  
  28    6:00    0.0    59   62.8    10    310.1    11.9    999.0   0.00  
  28    6:10    0.0    59   63.4    10    313.4    11.9    999.0   0.00  
  28    6:20    0.0    58   64.6    10    315.2    11.3    999.0   0.00  
  28    6:30    0.0    58   65.2     9    307.5    10.8    999.0   0.00  
  28    6:40    0.0    58   65.5     8    297.1     9.6    999.0   0.00  
  28    6:50    0.0    59   64.6     7    302.0     8.4    999.0   0.00  
  28    7:00    3.0    59   64.0     7    296.9     8.4    999.0   0.00  
  28    7:10   11.0    60   60.8     6    298.8     7.2    999.0   0.00  
  28    7:20   25.0    60   62.0     5    302.5     6.0    999.0   0.00  
  28    7:30   40.0    61   62.0     6    308.4     6.6    999.0   0.00  
  28    7:40   59.0    61   61.5     6    317.1     6.6    999.0   0.00  
  28    7:50  107.0    61   61.1     5    318.0     6.0    999.0   0.00  
  28    8:00  131.0    61   60.6     5    306.8     6.0    999.0   0.00  
  28    8:10  137.0    61   61.0     5    300.6     6.0    999.0   0.00  
  28    8:20  173.0    61   62.4     6    312.4     7.2    999.0   0.00  
  28    8:30  205.0    61   64.8     6    317.4     7.8    999.0   0.00  
  28    8:40  255.0    61   65.9     7    326.1     8.4    999.0   0.00  
  28    8:50  267.0    60   67.7     8    318.9     9.6    999.0   0.00  
  28    9:00  270.0    59   70.2     9    313.9    10.8    999.0   0.00  
  28    9:10  267.0    59   70.7     9    314.3    10.8    999.0   0.00  
  28    9:20  262.0    59   70.6     8    322.8    10.8    999.0   0.00  
  28    9:30  222.0    59   70.1     9    320.4    12.5    999.0   0.00  
  28    9:40  222.0    59   69.0    10    318.0    12.5    999.0   0.00  
  28    9:50  226.0    59   67.7    10    310.4    12.5    999.0   0.00  
  28   10:00  285.0    60   64.6    11    316.1    12.5    999.0   0.00  
  28   10:10  292.0    60   62.7    11    310.8    13.7    999.0   0.00  
  28   10:20  298.0    61   62.8    10    314.4    13.1    999.0   0.00  
  28   10:30  319.0    61   62.7     9    311.8    11.9    999.0   0.00  
  28   10:40  341.0    61   63.5     9    323.1    11.9    999.0   0.00  
  28   10:50  350.0    61   62.8     9    322.6    10.8    999.0   0.00  
  28   11:00  367.0    62   62.1     8    321.9    10.8    999.0   0.00  
  28   11:10  371.0    62   62.1     7    315.7     9.0    999.0   0.00  
  28   11:20  385.0    62   62.0     6    303.3     8.4    999.0   0.00  
  28   11:30  351.0    63   60.7     6    296.6     7.2    999.0   0.00  
  28   11:40  332.0    63   60.8     4    293.0     5.4    999.0   0.00  
  28   11:50  335.0    64   59.7     2    278.1     3.0    999.0   0.00  
  28   12:00  319.0    66   56.6     2     86.2     4.8    999.0   0.00  
  28   12:10  307.0    67   58.8     3    100.3     5.4    999.0   0.00  
  28   12:20  301.0    66   59.4     3    103.1     4.8    999.0   0.00  
  28   12:30  317.0    68   55.2     2    105.1     3.6    999.0   0.00  
  28   12:40  332.0    68   46.9     3     86.6     4.2    999.0   0.00  
  28   12:50  373.0    69   53.0     3    100.1     4.8    999.0   0.00  
  28   13:00  349.0    69   50.7     3    108.6     4.8    999.0   0.00  
  28   13:10  348.0    68   52.5     3    102.3     4.8    999.0   0.00  
  28   13:20  313.0    69   53.5     4    105.1     7.2    999.0   0.00  
  28   13:30  248.0    67   58.3     5    105.8     7.2    999.0   0.00  
  28   13:40  216.0    66   58.0     4    111.9     5.4    999.0   0.00  
  28   13:50  182.0    66   59.6     4    110.6     4.8    999.0   0.00  
  28   14:00  163.0    66   55.5     1    125.3     2.4    999.0   0.00  
  28   14:10  152.0    66   56.2     1     70.1     2.4    999.0   0.00  
  28   14:20  145.0    65   60.5     3    342.2     4.2    999.0   0.00  
  28   14:30  138.0    65   57.7     3    303.0     4.2    999.0   0.00  
  28   14:40  129.0    65   52.3     3    327.8     4.8    999.0   0.00  
  28   14:50  119.0    64   53.5     4    326.4     6.6    999.0   0.00  
  28   15:00  107.0    64   58.0     6    306.7     7.8    999.0   0.00  
  28   15:10  102.0    64   58.3     7    297.3     9.6    999.0   0.00  
  28   15:20   92.0    64   59.1     7    289.8     8.4    999.0   0.00  
  28   15:30   78.0    64   59.0     8    280.9     9.0    999.0   0.00  
  28   15:40   64.0    64   59.8     6    277.0     7.8    999.0   0.00  
  28   15:50   51.0    64   57.0     4    286.0     5.4    999.0   0.00  
  28   16:00   46.0    63   58.2     3    321.6     4.8    999.0   0.00  
  28   16:10   42.0    63   59.5     4    344.8     5.4    999.0   0.00  
  28   16:20   48.0    63   58.7     2    359.5     5.4    999.0   0.00  
  28   16:30   41.0    63   57.6     3    337.9     4.2    999.0   0.00  
  28   16:40   31.0    62   55.0     3    325.6     6.6    999.0   0.00  
  28   16:50   24.0    62   54.4     6    328.5     7.2    999.0   0.00  
  28   17:00   19.0    62   53.4     6    325.9     7.2    999.0   0.00  
  28   17:10   16.0    62   51.9     5    327.3     7.2    999.0   0.00  
  28   17:20    6.0    63   45.9     3    336.2     5.4    999.0   0.00  
  28   17:30    0.0    63   43.5     2    343.0     3.6    999.0   0.00  
  28   17:40    0.0    64   41.8     3     75.8     4.8    999.0   0.00  
  28   17:50    0.0    64   42.2     4     87.3     5.4    999.0   0.00  
  28   18:00    0.0    64   41.4     3     88.4     4.8    999.0   0.00  
  28   18:10    0.0    64   40.8     3     92.1     4.2    999.0   0.00  
  28   18:20    0.0    65   39.2     4     75.8     4.2    999.0   0.00  
  28   18:30    0.0    65   39.0     4     70.4     4.8    999.0   0.00  
  28   18:40    0.0    65   40.1     3     43.5     4.2    999.0   0.00  
  28   18:50    0.0    64   41.2     3     13.8     4.2    999.0   0.00  
  28   19:00    0.0    63   42.2     3    338.5     4.2    999.0   0.00  
  28   19:10    0.0    64   42.3     5    346.5     6.6    999.0   0.00  
  28   19:20    0.0    64   42.5     5    356.0     7.2    999.0   0.00  
  28   19:30    0.0    64   42.3     5    346.5     6.6    999.0   0.00  
  28   19:40    0.0    64   41.5     6    315.1     7.2    999.0   0.00  
  28   19:50    0.0    64   41.7     4    304.9     5.4    999.0   0.00  
  28   20:00    0.0    64   41.4     4     14.8     6.6    999.0   0.00  
  28   20:10    0.0    64   43.2     5    345.4     7.2    999.0   0.00  

Return to Dakin Peak graphs page.


Western Regional Climate Center,wrcc@dri.edu